Location: Escalona
(40.1669°N, 4.4048°W)
Time: 04:36:01
(UTC+00:00)

USA 290 - Pass Details

Date: 08 August 2025
Orbit: 396 x 415 km, 73.6° (Epoch: 30 October)

Event Time Altitude Azimuth Distance (km) Brightness Sun altitude
Rises 20:40:33 0° 337° (NNW) 2,387 7.1 -13.8°
Reaches altitude 10° 20:42:38 10° 334° (NNW) 1,512 6.1 -14.1°
Maximum altitude 20:45:55 63° 253° (WSW) 473 2.6 -14.6°
Enters shadow 20:47:58 20° 176° (S) 1,011 3.8 -14.9°
